Tracking 21992 objects as of 26-Nov-2020
HD Live streaming from Space Station
objects crossing your sky now

EDUSAT

Track EDUSAT now!
10-day predictions
EDUSAT is classified as:


NORAD ID: 37788
Int'l Code: 2011-044A
Perigee: 637.3 km
Apogee: 692.5 km
Inclination: 98.4 °
Period: 97.9 minutes
Semi major axis: 7035 km
RCS: 0.1421 m2 (medium)
Launch date: August 17, 2011
Source: Italy (IT)
Launch site: Orenburg, Russia (OREN)

EduSat is a microsatellite built by the University of Rome.
aabbcc
Your satellite tracking list
Your tracking list is empty




NASA's NSSDC Master Catalog

Two Line Element Set (TLE):
1 37788U 11044A   20331.04910479  .00000168  00000-0  35993-4 0  9994
2 37788  98.4082 132.4791 0039199  70.9230  73.2511 14.71044418497794
Source of the keplerian elements: AFSPC